Location: Unspecified
(33.6682°S, 0.0000°E)
Time: 07:58:23
(UTC+00:00)

Courier 1B - Visible Passes

Search period start: 14 October 2019 00:00
Search period end: 24 October 2019 00:00
Orbit: 962 x 1209 km, 28.3° (Epoch: 14 October)

Date Brightness Start Highest point End Pass type
(mag) Time Alt. Az. Time Alt. Az. Time Alt. Az.
18 Oct 9.6 04:22:41 10° N 04:25:36 13° NNE 04:28:31 10° ENE visible
20 Oct 9.2 04:26:49 10° NNW 04:31:43 22° NNE 04:36:36 10° ENE visible
21 Oct 9.4 03:34:55 12° N 03:38:10 17° NNE 03:42:15 10° ENE visible
22 Oct 9.5 02:44:31 13° NNE 02:44:37 13° NNE 02:47:21 10° NE visible
22 Oct 8.6 04:32:09 10° NW 04:37:55 33° NNE 04:43:39 10° E visible
23 Oct 8.8 03:40:57 18° NNW 03:44:20 27° NNE 03:49:42 10° ENE visible
